Location: ??????
(41.3747°N, 22.5491°E)
Time: 04:27:47
(UTC+00:00)

Cosmos 1934 Rocket - Pass Details

Date: 01 December 2020
Orbit: 937 x 1000 km, 83.0° (Epoch: 20 January)

Event Time Altitude Azimuth Distance (km) Brightness Sun altitude
Rises 17:15:08 0° 354° (N) 3,730 7.0 -24.6°
Reaches altitude 10° 17:17:42 10° 356° (N) 2,773 6.3 -25.0°
Maximum altitude 17:24:05 75° 82° (E) 1,026 3.8 -26.2°
Drops below altitude 10° 17:30:20 10° 168° (SSE) 2,722 6.3 -27.4°
Sets 17:32:49 0° 169° (S) 3,657 7.0 -27.8°
